Glasgow, MT

6:26 PM MDT on September 24, 2017 (GMT -0600)
Wokal-Glasgow International

Weather History for KGGW - April, 2012

Change the Weather History Date:

Saturday, April 7, 2012

  Actual Average Record
Temperature  
Mean Temperature 40 °F 42 °F  
Max Temperature 49 °F 54 °F 81 °F (2005)
Min Temperature 31 °F 30 °F 9 °F (1926)
Degree Days  
Heating Degree Days 25 23  
Month to date heating degree days 138 171  
Since 1 July heating degree days 6338 7575  
Cooling Degree Days 0 0  
Month to date cooling degree days 0 0  
Year to date cooling degree days 0 0  
Moisture  
Dew Point 28 °F    
Average Humidity 65    
Maximum Humidity 92    
Minimum Humidity 38    
Precipitation  
Precipitation 0.00 in 0.03 in 0.81 in (1948)
Month to date precipitation 0.17 0.15  
Year to date precipitation 1.47 1.20  
Snow  
Snow 0.00 in 0.10 in 7.00 in (1948)
Month to date snowfall 0.1 0.7  
Since 1 July snowfall 25.7 32.4  
Snow Depth 0.00 in    
Sea Level Pressure  
Sea Level Pressure 30.19 in    
Wind  
Wind Speed 15 mph (WNW)    
Max Wind Speed 32 mph    
Max Gust Speed 38 mph    
Visibility 10 miles    
Events Snow    
T = Trace of Precipitation, MM = Missing Value Source: NWS Daily Summary

Daily Weather History Graph

Daily Weather History Graph

Search for Another Location

Airport or City:

Trip Planner

Search our weather history database for the weather conditions in past years. The results will help you decide how hot, cold, wet, or windy it might be!

Date:

Astronomy

Apr. 07, 2012 Rise Set
Actual Time 6:31 AM MDT 7:46 PM MDT
Civil Twilight 5:59 AM MDT 8:18 PM MDT
Nautical Twilight 5:20 AM MDT 8:57 PM MDT
Astronomical Twilight 4:39 AM MDT 9:39 PM MDT
Moon 9:35 PM MDT (4/7) 6:37 AM MDT (4/7)
Length of Visible Light 14h 19m
Length of Day
13h 15m
Full, 99% of the Moon is Illuminated
Apr 7
Full
Apr 13
Last Quarter
Apr 21
New
Apr 29
First Quarter
May 5
Full

Hourly Weather History & Observations

Time (MDT) Temp. Windchill Dew Point Humidity Pressure Visibility Wind Dir Wind Speed Gust Speed Precip Events Conditions
12:53 AM 33.8 °F 22.8 °F 30.2 °F 87% 30.01 in 7.0 mi West 18.4 mph 24.2 mph N/A Snow Light Snow
1:53 AM 33.1 °F 23.0 °F 30.0 °F 89% 30.10 in 10.0 mi West 15.0 mph 20.7 mph 0.00 in   Mostly Cloudy
2:53 AM 33.1 °F 23.4 °F 30.0 °F 89% 30.11 in 10.0 mi West 13.8 mph - N/A   Scattered Clouds
3:53 AM 33.8 °F 22.8 °F 30.2 °F 87% 30.05 in 10.0 mi West 18.4 mph 24.2 mph N/A   Mostly Cloudy
4:53 AM 33.1 °F 22.2 °F 30.0 °F 89% 30.14 in 10.0 mi West 17.3 mph - N/A   Partly Cloudy
5:53 AM 30.9 °F 20.7 °F 28.9 °F 92% 30.17 in 10.0 mi West 13.8 mph - N/A   Partly Cloudy
6:53 AM 30.9 °F 21.7 °F 28.9 °F 92% 30.19 in 10.0 mi West 11.5 mph - N/A   Clear
7:53 AM 33.1 °F 23.4 °F 28.9 °F 85% 30.20 in 10.0 mi West 13.8 mph - N/A   Clear
8:53 AM 36.0 °F 26.7 °F 28.9 °F 76% 30.21 in 10.0 mi WNW 15.0 mph 21.9 mph N/A   Clear
9:53 AM 37.9 °F 29.6 °F 28.9 °F 70% 30.23 in 10.0 mi WNW 13.8 mph - N/A   Clear
10:53 AM 42.1 °F 33.3 °F 26.1 °F 53% 30.23 in 10.0 mi NW 19.6 mph - N/A   Clear
11:53 AM 44.1 °F 36.2 °F 27.0 °F 51% 30.23 in 10.0 mi WNW 18.4 mph - N/A   Overcast
12:53 PM 44.1 °F 35.9 °F 25.0 °F 47% 30.23 in 10.0 mi West 19.6 mph 25.3 mph N/A   Mostly Cloudy
1:53 PM 46.9 °F - 23.0 °F 39% 30.22 in 10.0 mi WNW 21.9 mph 27.6 mph N/A   Mostly Cloudy
2:53 PM 48.0 °F - 27.0 °F 44% 30.21 in 10.0 mi West 21.9 mph - N/A   Clear
3:53 PM 48.0 °F - 28.0 °F 46% 30.19 in 10.0 mi West 23.0 mph 29.9 mph N/A   Partly Cloudy
4:53 PM 48.9 °F - 26.1 °F 41% 30.18 in 10.0 mi West 25.3 mph 31.1 mph N/A   Partly Cloudy
5:53 PM 45.0 °F 36.9 °F 30.0 °F 56% 30.22 in 10.0 mi WNW 20.7 mph - N/A   Clear
6:53 PM 41.0 °F 33.9 °F 30.9 °F 67% 30.24 in 10.0 mi NW 12.7 mph - N/A   Scattered Clouds
7:53 PM 39.0 °F 33.4 °F 28.9 °F 67% 30.23 in 10.0 mi West 8.1 mph - N/A   Clear
8:53 PM 37.0 °F 31.0 °F 28.9 °F 73% 30.25 in 10.0 mi WNW 8.1 mph - N/A   Scattered Clouds
9:53 PM 35.1 °F - 30.0 °F 82% 30.25 in 10.0 mi Calm Calm - N/A   Partly Cloudy
10:53 PM 34.0 °F 26.6 °F 28.0 °F 79% 30.24 in 10.0 mi WSW 9.2 mph - N/A   Clear
11:53 PM 33.1 °F 26.1 °F 27.0 °F 78% 30.24 in 10.0 mi West 8.1 mph - N/A   Clear